[[{"header":{"parameterUnit":"m.s-1","parameterCategory":2,"la1":30.2991,"la2":30.254,"lo1":-89.0895,"lo2":-89.0444,"dy":0.0017,"dx":0.0017,"nx":28,"ny":28,"refTime":"2023-07-28T03:00:00:Z","depth":"0","parameterNumber":2,"parameterNumberName":"U-component_of_CURRENTS"},"data":[0,0,0,0,0,0,0,0,0,0,0,0,0,0,0,0,0,0,0,0,0,0,0,0,0,0,0,0,0,0,0,0,0,0,0,0,0,0,0,0,0,0,0,0,0,0,0,0,0,0,0,0,0,0,0,0,0,0,0.1798,0.1799,0,0.1825,0.1825,0.1825,0.1824,0.1824,0.1824,0.1824,0.1802,0.1802,0.1801,0,0,0,0,0,0,0,0,0,0,0,0,0,0.1745,0.1745,0.1798,0.1799,0.1799,0.1825,0.1825,0.1826,0.1824,0.1824,0.1824,0.1823,0.1802,0.1802,0.1801,0,0,0,0,0,0,0,0,0,0,0,0,0,0.1767,0.1746,0.1798,0.1804,0.1805,0.1825,0.1825,0.1826,0.1824,0.1824,0.1824,0.1823,0.1802,0.1802,0.1801,0.1802,0,0,0.1799,0.1799,0,0,0,0,0,0,0,0,0.1766,0.1769,0.1802,0.1803,0.1805,0.1823,0.1799,0.1816,0.1824,0.1814,0.1824,0.1823,0.1806,0.1806,0.1808,0.1801,0.18,0.1799,0.1799,0.1798,0.1798,0,0,0,0,0,0,0,0.1764,0.1767,0.1806,0.1803,0.1804,0.1805,0.1807,0.1802,0.1808,0.1815,0.1815,0.1823,0.1806,0.1809,0.1807,0.1799,0.1799,0.1798,0.1798,0.1798,0.1878,0.188,0,0,0,0,0,0,0.1767,0.1766,0.1806,0.1807,0.1787,0.1806,0.1809,0.1815,0.1809,0.1809,0.1823,0.1823,0.181,0.1808,0.1807,0.1866,0.1798,0.1798,0.1797,0.1876,0.1879,0.1881,0,0,0,0,0,0,0.1765,0.177,0.1804,0.1789,0.1794,0.1808,0.1815,0.1816,0.1823,0.1817,0.1815,0.1829,0.181,0.1808,0.1825,0.1863,0.1797,0.1797,0.1873,0.1877,0.188,0.1946,0,0,0,0,0,0,0.1763,0.1769,0.1773,0.179,0.1795,0.1827,0.1815,0.1817,0.1829,0.1829,0.1822,0.1819,0.1809,0.1826,0.1825,0.1861,0.1796,0.1869,0.1874,0.1879,0.1941,0.1952,0.1961,0,0,0,0,0,0.1761,0.1771,0.1773,0.1778,0.1801,0.1829,0.1832,0.1838,0.183,0.1841,0.1845,0.182,0.1856,0.1827,0.1825,0.1861,0.1867,0.1873,0.1878,0.1937,0.195,0.1961,0,0,0,0,0,0,0.1752,0.1773,0.1775,0.1791,0.1813,0.1829,0.184,0.1842,0.1853,0.1851,0.1839,0.1838,0.1872,0.1861,0.183,0.1904,0.1863,0.1868,0.1908,0.192,0.193,0.1937,0.1796,0,0,0,0,0,0.1752,0.1763,0.1787,0.1801,0.1813,0.1826,0.1836,0.1843,0.1856,0.186,0.1858,0.1868,0.1894,0.19,0.1912,0.1939,0.2019,0.1968,0.1978,0.1987,0.1995,0.2151,0.2177,0.19,0.19,0.19,0,0,0.1753,0.1766,0.1773,0.1799,0.1814,0.1839,0.1831,0.1854,0.1877,0.1855,0.1881,0.1896,0.191,0.1952,0.1967,0.1945,0.2123,0.1994,0.2001,0.2004,0.216,0.2187,0.2211,0.1904,0.1903,0.1903,0,0,0.1768,0.1773,0.1793,0.181,0.1838,0.1849,0.1858,0.1881,0.1894,0.1924,0.193,0.1978,0.1984,0.2026,0.2043,0.2118,0.2171,0.2115,0.2168,0.232,0.2345,0.2367,0.2569,0.2608,0.212,0.212,0.212,0,0.1772,0.1796,0.1804,0.1829,0.1846,0.1856,0.1885,0.1904,0.193,0.1957,0.1941,0.2029,0.2032,0.2122,0.2146,0.2142,0.2249,0.2115,0.2336,0.2358,0.238,0.2581,0.2623,0.2124,0.2124,0.2123,0.2123,0,0.1807,0.1824,0.1838,0.1871,0.1889,0.1916,0.1943,0.1966,0.198,0.201,0.2093,0.2125,0.2185,0.22,0.2187,0.2338,0.2377,0.2332,0.2304,0.2412,0.2617,0.2661,0.213,0.2128,0.2127,0.2126,0,0,0.1834,0.1858,0.1863,0.1883,0.1913,0.1936,0.1975,0.2031,0.2086,0.2119,0.2217,0.2265,0.2295,0.2319,0.2336,0.2452,0.2709,0.245,0.2457,0.2652,0.3105,0.3122,0.3172,0.2702,0.2708,0.2713,0.3212,0,0.1867,0.1905,0.1911,0.1954,0.1985,0.1998,0.2043,0.209,0.2142,0.2237,0.2302,0.2395,0.2339,0.2396,0.2502,0.2651,0.2815,0.2582,0.2969,0.2983,0.2983,0.3218,0.3133,0.3567,0.3254,0.3261,0.3266,0,0.192,0.1932,0.1975,0.201,0.2026,0.2052,0.2134,0.2176,0.2295,0.2346,0.2444,0.2501,0.2674,0.2611,0.2951,0.2806,0.2966,0.3082,0.3104,0.3117,0.3078,0.3396,0.3657,0.3536,0.3333,0.3328,0.3323,0,0.1965,0.1988,0.2018,0.203,0.2071,0.2098,0.2124,0.2217,0.2298,0.2439,0.2545,0.2703,0.2852,0.3034,0.3231,0.3129,0.3632,0.3529,0.3718,0.3724,0.3726,0.3719,0.3908,0.3813,0.3812,0.3811,0.3809,0,0.2023,0.2052,0.2037,0.2065,0.2127,0.2128,0.2233,0.2283,0.2412,0.2551,0.2613,0.2787,0.2965,0.3229,0.3363,0.3708,0.3761,0.3808,0.387,0.3752,0.3742,0.3687,0.3594,0.383,0.3826,0.3822,0.3819,0,0.2114,0.2089,0.2145,0.2159,0.2165,0.2219,0.2304,0.2395,0.2485,0.2684,0.2747,0.2963,0.3289,0.3493,0.3864,0.3932,0.4128,0.4314,0.4183,0.4218,0.4201,0.4115,0.4216,0.4098,0.4635,0.4638,0.4641,0,0.2181,0.2213,0.2233,0.2269,0.2284,0.234,0.2402,0.2453,0.2555,0.2796,0.2921,0.3253,0.3482,0.4028,0.4234,0.4571,0.4338,0.4662,0.4418,0.4266,0.4218,0.3933,0.3801,0.4503,0.4505,0.4506,0.4507,0,0.2321,0.232,0.2344,0.2401,0.2449,0.2505,0.2574,0.2661,0.2751,0.2914,0.3163,0.3355,0.3839,0.413,0.452,0.4675,0.4412,0.4699,0.4586,0.4193,0.3857,0.3748,0.4131,0.452,0.4518,0.4517,0.4517,0.4516,0.2425,0.2464,0.2466,0.2525,0.2576,0.2621,0.2651,0.2748,0.288,0.3054,0.3275,0.3527,0.3933,0.4455,0.4576,0.4711,0.4572,0.4631,0.4582,0.4336,0.4065,0.4491,0.4876,0.4877,0.4878,0.4878,0.4879,0,0.2507,0.2509,0.2585,0.2591,0.2631,0.2644,0.2726,0.2735,0.2847,0.3085,0.3271,0.3698,0.4025,0.4304,0.4638,0.46,0.4325,0.4499,0.4068,0.3972,0.4458,0.4285,0.4501,0.4502,0.4502,0.4502,0.4502,0.4502,0.2526,0.2558,0.2567,0.2593,0.2615,0.2596,0.2618,0.267,0.2795,0.3028,0.3245,0.347,0.3898,0.4324,0.443,0.4366,0.4023,0.3928,0.3831,0.416,0.4163,0.4166,0.3981,0.413,0.4129,0.3168,0.3161,0.3156]},{"header":{"parameterUnit":"m.s-1","parameterCategory":2,"la1":30.2991,"la2":30.254,"lo1":-89.0895,"lo2":-89.0444,"dy":0.0017,"dx":0.0017,"nx":28,"ny":28,"refTime":"2023-07-28T03:00:00:Z","depth":"0","parameterNumber":3,"parameterNumberName":"V-component_of_CURRENTS"},"data":[0,0,0,0,0,0,0,0,0,0,0,0,0,0,0,0,0,0,0,0,0,0,0,0,0,0,0,0,0,0,0,0,0,0,0,0,0,0,0,0,0,0,0,0,0,0,0,0,0,0,0,0,0,0,0,0,0,0,-0.0862,-0.0863,0,-0.0949,-0.095,-0.0951,-0.1026,-0.1026,-0.1027,-0.1028,-0.1167,-0.117,-0.1173,0,0,0,0,0,0,0,0,0,0,0,0,0,-0.079,-0.0791,-0.0862,-0.0863,-0.0864,-0.0949,-0.095,-0.0951,-0.1025,-0.1026,-0.1027,-0.1028,-0.1166,-0.117,-0.1173,0,0,0,0,0,0,0,0,0,0,0,0,0,-0.0845,-0.0791,-0.0862,-0.091,-0.0915,-0.0948,-0.095,-0.0952,-0.1025,-0.1026,-0.1027,-0.1028,-0.1165,-0.1169,-0.1174,-0.1181,0,0,-0.1188,-0.119,0,0,0,0,0,0,0,0,-0.0841,-0.0847,-0.0902,-0.0907,-0.0912,-0.0976,-0.0976,-0.1031,-0.1025,-0.0985,-0.1028,-0.1029,-0.1106,-0.1116,-0.1131,-0.1188,-0.1194,-0.1188,-0.1191,-0.1193,-0.1194,0,0,0,0,0,0,0,-0.0837,-0.0844,-0.0898,-0.0903,-0.0909,-0.0937,-0.0946,-0.0986,-0.1041,-0.0989,-0.0994,-0.1001,-0.111,-0.1126,-0.1135,-0.1196,-0.1188,-0.1192,-0.1195,-0.1197,-0.1253,-0.1251,0,0,0,0,0,0,-0.0821,-0.084,-0.0895,-0.09,-0.0877,-0.0937,-0.0947,-0.0956,-0.1039,-0.1052,-0.1,-0.1004,-0.1118,-0.113,-0.114,-0.1129,-0.1193,-0.1197,-0.12,-0.1254,-0.1252,-0.1251,0,0,0,0,0,0,-0.0819,-0.0825,-0.0892,-0.0871,-0.0881,-0.0937,-0.0946,-0.0957,-0.0976,-0.1047,-0.1062,-0.1007,-0.1119,-0.1134,-0.1168,-0.1136,-0.1199,-0.1203,-0.1255,-0.1253,-0.1252,-0.1124,0,0,0,0,0,0,-0.0817,-0.0824,-0.0822,-0.087,-0.0882,-0.0902,-0.0945,-0.0958,-0.0978,-0.0984,-0.1058,-0.1072,-0.1121,-0.1161,-0.1173,-0.1144,-0.1207,-0.1257,-0.1254,-0.1252,-0.1129,-0.1117,-0.1107,0,0,0,0,0,-0.0814,-0.08,-0.0821,-0.0828,-0.0878,-0.0901,-0.091,-0.0955,-0.0977,-0.0977,-0.1025,-0.107,-0.1154,-0.1164,-0.1178,-0.115,-0.1258,-0.1255,-0.1252,-0.1134,-0.112,-0.1108,0,0,0,0,0,0,-0.0761,-0.0808,-0.0832,-0.0832,-0.0862,-0.0913,-0.0914,-0.0946,-0.0984,-0.0989,-0.1061,-0.1077,-0.1093,-0.114,-0.1149,-0.1158,-0.1211,-0.121,-0.1116,-0.1103,-0.1092,-0.1027,-0.1211,0,0,0,0,0,-0.0749,-0.0754,-0.0802,-0.0799,-0.0811,-0.0862,-0.0876,-0.0905,-0.0945,-0.0964,-0.1013,-0.106,-0.109,-0.1112,-0.115,-0.116,-0.1137,-0.115,-0.1138,-0.1129,-0.1085,-0.1035,-0.1013,-0.1241,-0.1241,-0.1242,0,0,-0.0724,-0.0751,-0.0753,-0.0789,-0.0815,-0.0816,-0.0873,-0.0884,-0.088,-0.0972,-0.0978,-0.1025,-0.1085,-0.1091,-0.1102,-0.1128,-0.1047,-0.1125,-0.1116,-0.1077,-0.1029,-0.1006,-0.0986,-0.124,-0.124,-0.124,0,0,-0.0669,-0.0703,-0.0687,-0.071,-0.0744,-0.0775,-0.0774,-0.082,-0.0837,-0.0852,-0.0907,-0.0922,-0.099,-0.1006,-0.1028,-0.0977,-0.099,-0.1005,-0.0896,-0.0849,-0.0828,-0.081,-0.0722,-0.0698,-0.0999,-0.0999,-0.0999,0,-0.0632,-0.0628,-0.0683,-0.0676,-0.0681,-0.0749,-0.0727,-0.0751,-0.08,-0.0786,-0.0837,-0.0868,-0.0935,-0.0906,-0.0896,-0.0947,-0.091,-0.0943,-0.0829,-0.0811,-0.0795,-0.071,-0.0684,-0.0992,-0.0993,-0.0994,-0.0994,0,-0.0569,-0.0569,-0.0558,-0.0573,-0.0588,-0.0578,-0.0622,-0.0625,-0.0655,-0.0669,-0.0648,-0.0719,-0.0722,-0.076,-0.082,-0.0738,-0.0744,-0.0819,-0.0853,-0.0763,-0.0681,-0.0656,-0.0983,-0.0985,-0.0987,-0.0989,0,0,-0.0456,-0.0503,-0.0494,-0.0484,-0.0531,-0.0524,-0.0515,-0.0504,-0.0448,-0.0503,-0.0418,-0.0493,-0.0506,-0.0529,-0.0595,-0.057,-0.0441,-0.0638,-0.0638,-0.053,-0.0287,-0.0269,-0.0241,-0.0498,-0.0494,-0.049,-0.0264,0,-0.0377,-0.0341,-0.0391,-0.0342,-0.0322,-0.0382,-0.0355,-0.0355,-0.0352,-0.0288,-0.0333,-0.0288,-0.0426,-0.0401,-0.0399,-0.042,-0.0374,-0.0492,-0.0407,-0.0402,-0.0382,-0.0211,-0.0271,-0.0073,-0.024,-0.0236,-0.0233,0,-0.0277,-0.0271,-0.0216,-0.0213,-0.0205,-0.0183,-0.0123,-0.0109,-0.0059,-0.0047,-0.0013,-0.004,0.0008,-0.0132,-0.0084,-0.015,-0.0192,-0.0226,-0.022,-0.0223,-0.0338,-0.0198,-0.0022,-0.0318,-0.0195,-0.0199,-0.0201,0,-0.0142,-0.0136,-0.0084,-0.0086,-0.0096,-0.0058,-0.005,-0.0011,0.0056,0.0143,0.0236,0.0242,0.031,0.0248,0.0166,0.0061,0.0235,0.0075,0.0063,0.0064,0.0025,0.0015,-0.0056,0.013,0.013,0.0129,0.0128,0,-0.0028,0.002,-0.0008,0.0025,0.0121,0.0071,0.0202,0.0213,0.0307,0.0444,0.0393,0.0534,0.0408,0.0463,0.0321,0.0326,0.0369,0.0162,0.0145,0.0068,0.006,-0.0196,-0.0365,0.0138,0.0136,0.0134,0.0133,0,0.0117,0.0089,0.016,0.017,0.0187,0.0265,0.0346,0.045,0.0517,0.0711,0.0762,0.0831,0.091,0.0797,0.0759,0.0584,0.0404,0.0506,0.0453,0.0425,0.0081,-0.0077,-0.0046,-0.0154,0.0547,0.0549,0.0551,0,0.0191,0.0242,0.0286,0.0341,0.0353,0.0448,0.0522,0.0564,0.0683,0.09,0.1024,0.1169,0.1283,0.1272,0.1012,0.0865,0.0557,0.0673,0.0433,0.0136,-0.0054,-0.0166,-0.0271,0.0445,0.0446,0.0446,0.0447,0,0.0338,0.0357,0.0405,0.0509,0.0592,0.0694,0.0804,0.0925,0.1016,0.1191,0.144,0.1563,0.1556,0.1424,0.1209,0.102,0.0452,0.0681,0.0378,-0.0094,-0.0221,-0.0359,0.0237,0.0453,0.0452,0.0452,0.0451,0.0451,0.0454,0.0518,0.0575,0.0677,0.0782,0.0925,0.1025,0.1162,0.1366,0.1614,0.1725,0.1941,0.1682,0.1395,0.1114,0.0504,0.0517,0.024,0.01,0.0035,-0.0154,0.0494,0.0662,0.0662,0.0663,0.0663,0.0664,0,0.0563,0.0616,0.0731,0.0847,0.098,0.1001,0.1196,0.1303,0.1532,0.1805,0.2014,0.2068,0.1658,0.1202,0.0456,-0.0017,-0.0251,-0.0293,-0.0541,-0.0604,-0.0022,-0.0125,-0.0126,-0.0126,-0.0126,-0.0126,-0.0125,-0.0125,0.0619,0.0719,0.0762,0.0977,0.1074,0.1239,0.1343,0.1525,0.1731,0.2076,0.2277,0.2436,0.2106,0.0652,-0.0416,-0.0684,-0.1073,-0.1093,-0.1243,-0.0989,-0.0955,-0.0922,-0.1062,-0.126,-0.1261,-0.1821,-0.1828,-0.1832]}],[{"header":{"parameterUnit":"m.s-1","parameterCategory":2,"la1":30.2991,"la2":30.254,"lo1":-89.0895,"lo2":-89.0444,"dy":0.0017,"dx":0.0017,"nx":28,"ny":28,"refTime":"2023-07-28T03:00:00:Z","depth":"2","parameterNumber":2,"parameterNumberName":"U-component_of_CURRENTS"},"data":[0,0,0,0,0,0,0,0,0,0,0,0,0,0,0,0,0,0,0,0,0,0,0,0,0,0,0,0,0,0,0,0,0,0,0,0,0,0,0,0,0,0,0,0,0,0,0,0,0,0,0,0,0,0,0,0,0,0,0.1536,0.1536,0,0.1616,0.1617,0.1617,0.1626,0.1625,0.1625,0.1624,0.1685,0.1687,0.1689,0,0,0,0,0,0,0,0,0,0,0,0,0,0.142,0.1422,0.1535,0.1537,0.1538,0.1616,0.1617,0.1618,0.1626,0.1625,0.1625,0.1624,0.1684,0.1687,0.169,0,0,0,0,0,0,0,0,0,0,0,0,0,0.1481,0.1422,0.1535,0.1552,0.1555,0.1615,0.1617,0.1618,0.1626,0.1625,0.1624,0.1623,0.1683,0.1687,0.169,0.1732,0,0,0.17,0.1702,0,0,0,0,0,0,0,0,0.1477,0.1485,0.1549,0.1551,0.1554,0.1611,0.1598,0.1656,0.1627,0.1598,0.1624,0.1623,0.166,0.1665,0.1681,0.1735,0.1738,0.1701,0.1703,0.1704,0.1705,0,0,0,0,0,0,0,0.1473,0.1482,0.1566,0.155,0.1553,0.1566,0.1573,0.1609,0.1633,0.16,0.1602,0.1613,0.1661,0.1678,0.1683,0.1739,0.1701,0.1704,0.1706,0.1707,0.1942,0.1946,0,0,0,0,0,0,0.1466,0.1478,0.1564,0.1569,0.1514,0.1569,0.1577,0.1593,0.1633,0.1638,0.1613,0.1613,0.1673,0.1679,0.1685,0.1834,0.1704,0.1707,0.1709,0.1938,0.1943,0.1947,0,0,0,0,0,0,0.1463,0.1473,0.156,0.1525,0.1538,0.1572,0.159,0.1595,0.1626,0.1643,0.1648,0.1641,0.1672,0.168,0.1757,0.1832,0.1709,0.1712,0.1933,0.1939,0.1945,0.207,0,0,0,0,0,0,0.1459,0.1471,0.1486,0.1525,0.1539,0.1618,0.1591,0.1597,0.1634,0.1634,0.1668,0.1672,0.1672,0.1753,0.1761,0.1835,0.1715,0.1928,0.1936,0.1943,0.2061,0.208,0.2096,0,0,0,0,0,0.1455,0.1489,0.1487,0.1497,0.1557,0.162,0.163,0.1648,0.1637,0.1669,0.1702,0.1671,0.1808,0.1759,0.1768,0.1844,0.1924,0.1933,0.1943,0.2053,0.2076,0.2096,0,0,0,0,0,0,0.1446,0.1494,0.1492,0.1538,0.1581,0.1622,0.1657,0.1663,0.1714,0.1717,0.172,0.1729,0.1829,0.1824,0.1769,0.1939,0.1864,0.1875,0.1944,0.1966,0.1984,0.1953,0.1718,0,0,0,0,0,0.145,0.149,0.1531,0.157,0.1594,0.1626,0.1654,0.167,0.1715,0.1735,0.1761,0.1805,0.1875,0.1907,0.1955,0.2041,0.203,0.21,0.2118,0.2133,0.2118,0.2195,0.2218,0.1978,0.1978,0.1978,0,0,0.1457,0.1489,0.1511,0.1571,0.1604,0.1665,0.1642,0.17,0.1757,0.1736,0.1827,0.1867,0.1914,0.2021,0.2064,0.2023,0.22,0.2145,0.2157,0.2133,0.2207,0.223,0.225,0.1985,0.1984,0.1983,0,0,0.1496,0.1522,0.1567,0.1614,0.1674,0.1706,0.1727,0.1784,0.1817,0.1909,0.1923,0.2004,0.2091,0.2147,0.2185,0.233,0.2293,0.2357,0.242,0.2498,0.2517,0.2533,0.2555,0.2572,0.2363,0.2364,0.2364,0,0.1495,0.1557,0.1592,0.1653,0.1693,0.1728,0.1787,0.1846,0.1922,0.1957,0.1954,0.2114,0.2154,0.2288,0.2349,0.2369,0.2383,0.2332,0.2518,0.2534,0.2549,0.2567,0.2584,0.2371,0.237,0.2369,0.2369,0,0.157,0.1622,0.166,0.1745,0.1798,0.186,0.1934,0.1994,0.2035,0.2082,0.221,0.228,0.2356,0.2417,0.2431,0.2574,0.254,0.2531,0.2453,0.258,0.2591,0.2608,0.2381,0.2379,0.2376,0.2375,0,0,0.1547,0.1681,0.1691,0.1728,0.1846,0.1887,0.2005,0.21,0.2151,0.2258,0.2332,0.2494,0.2501,0.2545,0.2586,0.2669,0.2805,0.2651,0.2651,0.2651,0.2945,0.2766,0.2766,0.2834,0.2838,0.2841,0.2912,0,0.1583,0.1687,0.1758,0.1857,0.191,0.1988,0.2077,0.2171,0.2252,0.2337,0.2442,0.2536,0.2563,0.2604,0.27,0.2782,0.2852,0.2783,0.2838,0.2838,0.2648,0.2781,0.2617,0.2653,0.2927,0.2929,0.2931,0,0.1619,0.1683,0.1776,0.188,0.1908,0.1978,0.2089,0.218,0.2324,0.2381,0.2498,0.2561,0.2719,0.2706,0.29,0.2857,0.2903,0.2957,0.2961,0.275,0.2689,0.2573,0.2671,0.2957,0.2955,0.2953,0.2951,0,0.1551,0.1686,0.1747,0.1791,0.1927,0.1974,0.2052,0.2186,0.2262,0.241,0.2475,0.2635,0.2728,0.284,0.2941,0.2942,0.3111,0.3119,0.2994,0.298,0.2823,0.2788,0.3232,0.3232,0.3232,0.3232,0.3232,0,0.1548,0.1593,0.1715,0.1747,0.1812,0.1922,0.2007,0.2101,0.2242,0.2346,0.2483,0.2587,0.2775,0.2886,0.2958,0.3007,0.3123,0.3011,0.3,0.2861,0.283,0.3069,0.3049,0.3234,0.3234,0.3233,0.3233,0,0.1466,0.1553,0.1618,0.1743,0.1784,0.1826,0.1981,0.2043,0.2186,0.2327,0.2383,0.2592,0.2754,0.2871,0.3048,0.3013,0.3079,0.3051,0.2836,0.2796,0.2895,0.2881,0.2955,0.2949,0.2944,0.2941,0.2937,0,0.1435,0.1461,0.1582,0.162,0.1681,0.1771,0.1836,0.1995,0.2076,0.2332,0.239,0.259,0.269,0.2828,0.2862,0.2906,0.3,0.2705,0.2672,0.2891,0.2874,0.2868,0.286,0.2536,0.253,0.2525,0.252,0,0.136,0.1399,0.1448,0.1531,0.16,0.1685,0.1798,0.1852,0.2056,0.2175,0.2353,0.2451,0.2608,0.2595,0.2596,0.26,0.2684,0.2595,0.2939,0.2593,0.2492,0.2475,0.2484,0.2475,0.2479,0.2483,0.2485,0.2487,0.1278,0.1291,0.1357,0.1433,0.151,0.1588,0.1637,0.1763,0.1873,0.2034,0.2184,0.2264,0.2331,0.2271,0.225,0.2258,0.2423,0.2333,0.2353,0.2378,0.2278,0.2171,0.2073,0.2075,0.2077,0.2079,0.208,0,0.1171,0.1214,0.1267,0.135,0.1398,0.1492,0.16,0.1635,0.1731,0.1867,0.1966,0.1819,0.1824,0.194,0.1898,0.1869,0.19,0.18,0.1865,0.191,0.1951,0.1833,0.1509,0.1507,0.1505,0.1504,0,0,0.1109,0.1121,0.1166,0.1218,0.1293,0.1348,0.1399,0.1459,0.1542,0.1541,0.1569,0.1679,0.1822,0.1606,0.1611,0.1578,0.1727,0.1517,0.1978,0.2098,0.2136,0.226,0.2128,0,0,0,0,0]},{"header":{"parameterUnit":"m.s-1","parameterCategory":2,"la1":30.2991,"la2":30.254,"lo1":-89.0895,"lo2":-89.0444,"dy":0.0017,"dx":0.0017,"nx":28,"ny":28,"refTime":"2023-07-28T03:00:00:Z","depth":"2","parameterNumber":3,"parameterNumberName":"V-component_of_CURRENTS"},"data":[0,0,0,0,0,0,0,0,0,0,0,0,0,0,0,0,0,0,0,0,0,0,0,0,0,0,0,0,0,0,0,0,0,0,0,0,0,0,0,0,0,0,0,0,0,0,0,0,0,0,0,0,0,0,0,0,0,0,-0.0229,-0.0229,0,-0.0216,-0.0216,-0.0216,-0.0233,-0.0234,-0.0234,-0.0235,-0.024,-0.024,-0.024,0,0,0,0,0,0,0,0,0,0,0,0,0,-0.0269,-0.0269,-0.0229,-0.0229,-0.0229,-0.0216,-0.0216,-0.0216,-0.0233,-0.0234,-0.0234,-0.0235,-0.024,-0.024,-0.024,0,0,0,0,0,0,0,0,0,0,0,0,0,-0.0255,-0.0268,-0.0229,-0.0235,-0.0235,-0.0216,-0.0216,-0.0216,-0.0233,-0.0234,-0.0235,-0.0235,-0.024,-0.024,-0.0239,-0.0221,0,0,-0.0238,-0.0238,0,0,0,0,0,0,0,0,-0.0255,-0.0253,-0.0235,-0.0235,-0.0235,-0.0226,-0.0232,-0.0218,-0.0233,-0.0235,-0.0235,-0.0236,-0.0236,-0.0236,-0.0233,-0.0221,-0.0221,-0.0238,-0.0238,-0.0237,-0.0237,0,0,0,0,0,0,0,-0.0256,-0.0254,-0.0225,-0.0234,-0.0234,-0.0238,-0.0237,-0.0229,-0.0232,-0.0235,-0.0236,-0.0232,-0.0236,-0.0233,-0.0233,-0.0221,-0.0238,-0.0237,-0.0237,-0.0237,-0.0196,-0.0195,0,0,0,0,0,0,-0.0255,-0.0255,-0.0226,-0.0225,-0.0246,-0.0237,-0.0235,-0.0229,-0.0232,-0.0233,-0.0232,-0.0233,-0.0234,-0.0234,-0.0233,-0.0168,-0.0237,-0.0237,-0.0237,-0.0196,-0.0196,-0.0195,0,0,0,0,0,0,-0.0256,-0.0252,-0.0226,-0.0239,-0.0236,-0.0235,-0.0228,-0.0228,-0.0219,-0.0229,-0.0231,-0.0221,-0.0234,-0.0234,-0.022,-0.017,-0.0237,-0.0236,-0.0197,-0.0196,-0.0195,-0.0064,0,0,0,0,0,0,-0.0257,-0.0252,-0.0243,-0.0239,-0.0235,-0.0196,-0.0227,-0.0227,-0.0215,-0.0217,-0.022,-0.0222,-0.0235,-0.022,-0.0219,-0.017,-0.0236,-0.0198,-0.0197,-0.0195,-0.0069,-0.0058,-0.0049,0,0,0,0,0,-0.0258,-0.0227,-0.0243,-0.0239,-0.0223,-0.0194,-0.0192,-0.0196,-0.0214,-0.0194,-0.0207,-0.0222,-0.0211,-0.0219,-0.0218,-0.0167,-0.0199,-0.0197,-0.0196,-0.0074,-0.0061,-0.0049,0,0,0,0,0,0,-0.0224,-0.0226,-0.0243,-0.0211,-0.0201,-0.0197,-0.0174,-0.0187,-0.0181,-0.0183,-0.0206,-0.0208,-0.0178,-0.02,-0.0209,-0.0157,-0.0209,-0.0207,-0.0117,-0.0104,-0.0095,-0.0063,-0.0235,0,0,0,0,0,-0.0218,-0.0203,-0.0204,-0.0176,-0.0169,-0.0175,-0.0164,-0.0167,-0.0164,-0.0162,-0.0165,-0.0174,-0.017,-0.016,-0.0163,-0.0127,-0.0181,-0.01,-0.009,-0.0081,-0.0058,-0.0107,-0.0098,-0.0189,-0.0189,-0.0189,0,0,-0.0193,-0.0194,-0.0183,-0.0169,-0.0163,-0.0127,-0.0169,-0.0139,-0.0105,-0.0162,-0.0114,-0.0136,-0.0157,-0.0118,-0.0107,-0.0127,-0.009,-0.0079,-0.007,-0.0052,-0.0104,-0.0095,-0.0087,-0.0188,-0.0188,-0.0188,0,0,-0.0123,-0.0141,-0.01,-0.0094,-0.0081,-0.0082,-0.0071,-0.0061,-0.0052,-0.0014,-0.0053,-0.0047,-0.0031,-0.0034,-0.0036,0.0025,-0.004,0.002,0.0113,0.0066,0.0074,0.008,0.0002,-0.0,0.0033,0.0033,0.0034,0,-0.009,-0.0051,-0.0079,-0.004,-0.0021,-0.0057,-0.0001,0.0008,0.0023,0.0043,0.0019,0.0034,0.0015,0.0056,0.008,0.0055,-0.0,0.0076,0.0081,0.0086,0.009,0.0009,0.0005,0.004,0.0039,0.0038,0.0038,0,0.0006,0.0034,0.0063,0.0092,0.0109,0.0151,0.015,0.0174,0.0173,0.018,0.0217,0.0185,0.0195,0.0188,0.0163,0.0191,0.0131,0.0095,0.0058,0.0108,0.0018,0.0012,0.0049,0.0047,0.0045,0.0043,0,0,0.0094,0.0127,0.0136,0.0162,0.0179,0.0205,0.0262,0.0306,0.0343,0.0351,0.0399,0.0408,0.0378,0.0372,0.0327,0.0297,0.027,0.0225,0.0219,0.016,0.014,0.0028,0.0009,0.0234,0.0234,0.0234,0.0058,0,0.0184,0.0272,0.0267,0.0352,0.0395,0.0376,0.0428,0.0454,0.0466,0.0498,0.0472,0.0495,0.045,0.0451,0.0422,0.0306,0.0263,0.032,0.009,0.0083,-0.0012,0.0003,0.0051,-0.0107,0.0052,0.0051,0.005,0,0.0279,0.0322,0.0419,0.0466,0.0485,0.0532,0.0587,0.063,0.0654,0.0662,0.0677,0.0638,0.0621,0.0555,0.0414,0.0449,0.032,0.0219,0.0208,0.0061,-0.0039,-0.013,-0.0126,0.0038,0.0039,0.004,0.0041,0,0.0335,0.0424,0.05,0.0517,0.0572,0.062,0.0655,0.0692,0.0726,0.0762,0.0775,0.0746,0.0713,0.0584,0.039,0.0403,0.0187,0.0167,-0.0059,-0.0071,-0.0095,-0.0109,0.006,0.006,0.0061,0.0061,0.0062,0,0.041,0.0467,0.0535,0.0569,0.0658,0.0684,0.0769,0.0797,0.0839,0.0884,0.0861,0.0857,0.0718,0.0579,0.0409,0.0144,0.0195,-0.0041,-0.0115,-0.0054,-0.0062,0.0019,0.0017,0.0054,0.0056,0.0057,0.0058,0,0.0431,0.0481,0.0561,0.0647,0.0679,0.0737,0.0816,0.0872,0.0913,0.0963,0.0977,0.0924,0.0751,0.0556,0.031,0.0146,-0.0086,-0.0201,-0.014,-0.0202,-0.0316,-0.0309,-0.0445,-0.045,-0.0455,-0.0458,-0.0462,0,0.0442,0.0493,0.0595,0.0639,0.0679,0.0769,0.0828,0.0898,0.0953,0.0991,0.1009,0.0884,0.076,0.0346,0.0081,-0.025,-0.0236,-0.0435,-0.0391,-0.0305,-0.0363,-0.0349,-0.0337,-0.0383,-0.0386,-0.0387,-0.0389,0,0.0456,0.0495,0.0553,0.0653,0.0729,0.0812,0.0908,0.0957,0.1043,0.1067,0.1071,0.0972,0.0614,0.0292,-0.0158,-0.0353,-0.0368,-0.0488,-0.0407,-0.0269,-0.0263,-0.0315,-0.0302,-0.0405,-0.0403,-0.0402,-0.0401,-0.0401,0.0456,0.0496,0.0584,0.0675,0.0758,0.0866,0.0951,0.1035,0.1111,0.1154,0.1054,0.0905,0.0584,-0.0011,-0.0308,-0.0552,-0.0555,-0.0632,-0.0618,-0.0605,-0.0572,-0.0574,-0.0771,-0.0772,-0.0772,-0.0772,-0.0773,0,0.0477,0.0534,0.0607,0.0734,0.0829,0.0883,0.1016,0.1103,0.1202,0.1145,0.1089,0.0712,0.0311,0.0004,-0.0386,-0.0682,-0.0617,-0.074,-0.0573,-0.0559,-0.0546,-0.0502,-0.0687,-0.0687,-0.0687,-0.0687,0,0,0.0496,0.0575,0.0625,0.0788,0.088,0.1046,0.1137,0.1235,0.1248,0.1142,0.102,0.0769,0.0369,0.0097,-0.0258,-0.0447,-0.0421,-0.0479,-0.0528,-0.0276,-0.0258,-0.0481,-0.0399,0,0,0,0,0]}],[{"header":{"parameterUnit":"m.s-1","parameterCategory":2,"la1":30.2991,"la2":30.254,"lo1":-89.0895,"lo2":-89.0444,"dy":0.0017,"dx":0.0017,"nx":28,"ny":28,"refTime":"2023-07-28T03:00:00:Z","depth":"4","parameterNumber":2,"parameterNumberName":"U-component_of_CURRENTS"},"data":[0,0,0,0,0,0,0,0,0,0,0,0,0,0,0,0,0,0,0,0,0,0,0,0,0,0,0,0,0,0,0,0,0,0,0,0,0,0,0,0,0,0,0,0,0,0,0,0,0,0,0,0,0,0,0,0,0,0,0.0685,0.0685,0,0.0754,0.0755,0.0756,0.0831,0.0831,0.0832,0.0833,0.0909,0.0911,0.0912,0,0,0,0,0,0,0,0,0,0,0,0,0,0.0593,0.0595,0.0685,0.0685,0.0686,0.0754,0.0755,0.0756,0.0831,0.0831,0.0832,0.0833,0.0909,0.0911,0.0912,0,0,0,0,0,0,0,0,0,0,0,0,0,0.0648,0.0595,0.0684,0.0728,0.0732,0.0753,0.0755,0.0757,0.083,0.0831,0.0833,0.0834,0.0908,0.091,0.0912,0.0904,0,0,0.0919,0.092,0,0,0,0,0,0,0,0,0.0645,0.0652,0.0721,0.0725,0.073,0.0781,0.0751,0.0805,0.083,0.0797,0.0833,0.0834,0.0864,0.087,0.0886,0.0907,0.091,0.0919,0.092,0.0921,0.0922,0,0,0,0,0,0,0,0.0641,0.0649,0.0716,0.0722,0.0727,0.0736,0.0745,0.0761,0.0827,0.08,0.0805,0.0806,0.0867,0.0884,0.0888,0.0912,0.0919,0.0921,0.0922,0.0923,0.0986,0.0987,0,0,0,0,0,0,0.0625,0.0646,0.0714,0.0718,0.0685,0.0736,0.0747,0.0767,0.0827,0.0836,0.0805,0.0809,0.088,0.0886,0.0891,0.0941,0.0921,0.0923,0.0924,0.0986,0.0986,0.0987,0,0,0,0,0,0,0.0623,0.0631,0.0711,0.0679,0.0689,0.0737,0.0758,0.0768,0.0792,0.083,0.084,0.082,0.0881,0.0888,0.0921,0.0942,0.0924,0.0926,0.0985,0.0986,0.0987,0.1004,0,0,0,0,0,0,0.0621,0.0631,0.0659,0.0679,0.069,0.0737,0.0757,0.0768,0.0789,0.0795,0.0845,0.0853,0.0882,0.0918,0.0923,0.0945,0.0927,0.0985,0.0986,0.0986,0.1003,0.1005,0.1007,0,0,0,0,0,0.0618,0.0641,0.066,0.0669,0.0722,0.0737,0.0745,0.0784,0.0788,0.0807,0.0839,0.0852,0.0927,0.092,0.0926,0.0949,0.0984,0.0985,0.0986,0.1002,0.1005,0.1007,0,0,0,0,0,0,0.0617,0.0651,0.0673,0.0708,0.0728,0.0749,0.0773,0.0779,0.0818,0.0834,0.0856,0.0867,0.0907,0.0916,0.0907,0.0968,0.0958,0.096,0.0968,0.0971,0.0973,0.0994,0.0929,0,0,0,0,0,0.0627,0.0658,0.0681,0.0711,0.0723,0.0745,0.076,0.0783,0.0806,0.0826,0.0864,0.0896,0.0913,0.0932,0.0963,0.0987,0.099,0.1006,0.1008,0.101,0.103,0.1028,0.1032,0.099,0.099,0.099,0,0,0.0628,0.0656,0.0672,0.0713,0.0736,0.0762,0.0759,0.0787,0.0816,0.0826,0.0893,0.0909,0.0921,0.0964,0.0982,0.0976,0.1022,0.1011,0.1012,0.1033,0.103,0.1034,0.1037,0.0991,0.0991,0.0991,0,0,0.0636,0.0677,0.0703,0.0726,0.0764,0.0782,0.0785,0.0823,0.0853,0.09,0.0912,0.0937,0.0984,0.1,0.1004,0.1028,0.1034,0.1037,0.1068,0.1065,0.1068,0.1071,0.1077,0.1081,0.1037,0.1037,0.1037,0,0.0641,0.0683,0.071,0.0742,0.0764,0.0786,0.0812,0.0842,0.0892,0.0915,0.0933,0.099,0.1003,0.1018,0.104,0.1036,0.1039,0.1055,0.1068,0.1071,0.1074,0.1079,0.1083,0.1038,0.1038,0.1038,0.1038,0,0.0663,0.0707,0.0721,0.0777,0.0805,0.0831,0.0867,0.0909,0.0944,0.0974,0.1021,0.1041,0.1075,0.1073,0.1071,0.1093,0.109,0.1069,0.1061,0.1079,0.1083,0.1087,0.1039,0.1039,0.1039,0.1038,0,0,0.0638,0.0721,0.0729,0.0765,0.0828,0.0847,0.09,0.0945,0.0977,0.1038,0.1074,0.1107,0.1125,0.1131,0.1123,0.1123,0.1144,0.1116,0.1116,0.1124,0.1151,0.1135,0.1137,0.1124,0.1125,0.1126,0.1144,0,0.0647,0.0711,0.0753,0.0812,0.0842,0.089,0.0934,0.0984,0.1031,0.1084,0.1098,0.1143,0.1141,0.1159,0.1161,0.1156,0.1156,0.1143,0.1132,0.1133,0.1117,0.1142,0.1128,0.1147,0.1148,0.1148,0.1149,0,0.0649,0.0696,0.0756,0.0834,0.0852,0.0897,0.0969,0.1015,0.108,0.1117,0.1161,0.1187,0.1219,0.1202,0.1216,0.1211,0.1195,0.1179,0.1178,0.1166,0.1125,0.1126,0.1155,0.1155,0.1154,0.1154,0.1153,0,0.0606,0.0692,0.0744,0.0772,0.0864,0.0905,0.0958,0.103,0.1071,0.1147,0.1186,0.1226,0.1258,0.1251,0.1262,0.1241,0.1265,0.122,0.1185,0.1183,0.1183,0.1179,0.1216,0.1216,0.1216,0.1216,0.1216,0,0.0591,0.0631,0.0735,0.0763,0.0823,0.0897,0.0963,0.1018,0.1095,0.1143,0.1208,0.1243,0.1275,0.1301,0.1282,0.127,0.1285,0.1209,0.1192,0.1189,0.1186,0.1185,0.1181,0.1217,0.1217,0.1216,0.1216,0,0.0536,0.0606,0.0662,0.0768,0.0807,0.0851,0.0964,0.1003,0.1091,0.1154,0.1186,0.1272,0.132,0.1343,0.1341,0.13,0.128,0.126,0.1287,0.1267,0.1189,0.1186,0.1216,0.1215,0.1215,0.1215,0.1215,0,0.052,0.0544,0.0651,0.0686,0.0742,0.0824,0.0874,0.0983,0.1031,0.116,0.118,0.1274,0.1321,0.1313,0.1337,0.1322,0.1294,0.1276,0.121,0.1212,0.1191,0.1188,0.1185,0.1214,0.1214,0.1214,0.1214,0,0.0473,0.0512,0.0559,0.0633,0.0697,0.0757,0.0849,0.088,0.1005,0.1088,0.1161,0.1206,0.1263,0.1288,0.1307,0.1278,0.1288,0.1272,0.1271,0.1208,0.121,0.1189,0.1187,0.1213,0.1213,0.1213,0.1213,0,0.0433,0.0445,0.051,0.0573,0.064,0.0687,0.0742,0.0824,0.0892,0.1048,0.1068,0.1167,0.1251,0.1266,0.1273,0.1275,0.1234,0.117,0.1173,0.1175,0.1156,0.1153,0.1137,0,0,0,0,0,0.0389,0.0403,0.045,0.0515,0.0578,0.0624,0.0725,0.0784,0.091,0.0938,0.1009,0.1065,0.1123,0.1171,0.1161,0.1239,0.1225,0.1221,0.1149,0.1209,0.121,0.1194,0,0,0,0,0,0,0.0357,0.0393,0.0424,0.0462,0.0493,0.0559,0.0619,0.0701,0.0736,0.0863,0.09,0.0999,0.1063,0.1111,0.1136,0.1151,0.1086,0.1288,0.1285,0.1208,0.1209,0.121,0.1194,0,0,0,0,0]},{"header":{"parameterUnit":"m.s-1","parameterCategory":2,"la1":30.2991,"la2":30.254,"lo1":-89.0895,"lo2":-89.0444,"dy":0.0017,"dx":0.0017,"nx":28,"ny":28,"refTime":"2023-07-28T03:00:00:Z","depth":"4","parameterNumber":3,"parameterNumberName":"V-component_of_CURRENTS"},"data":[0,0,0,0,0,0,0,0,0,0,0,0,0,0,0,0,0,0,0,0,0,0,0,0,0,0,0,0,0,0,0,0,0,0,0,0,0,0,0,0,0,0,0,0,0,0,0,0,0,0,0,0,0,0,0,0,0,0,0.0036,0.0035,0,-0.0052,-0.0053,-0.0055,-0.0107,-0.0107,-0.0107,-0.0107,-0.0189,-0.0192,-0.0194,0,0,0,0,0,0,0,0,0,0,0,0,0,0.0116,0.0115,0.0036,0.0035,0.0035,-0.0052,-0.0053,-0.0055,-0.0107,-0.0107,-0.0107,-0.0107,-0.0189,-0.0191,-0.0194,0,0,0,0,0,0,0,0,0,0,0,0,0,0.0057,0.0115,0.0036,0.0,-0.0003,-0.0052,-0.0053,-0.0055,-0.0107,-0.0107,-0.0107,-0.0107,-0.0188,-0.0191,-0.0194,-0.0217,0,0,-0.0205,-0.0206,0,0,0,0,0,0,0,0,0.0061,0.0054,0.0006,0.0003,-0.0002,-0.0066,-0.0055,-0.0108,-0.0107,-0.0071,-0.0107,-0.0107,-0.0145,-0.0152,-0.0174,-0.0221,-0.0224,-0.0205,-0.0207,-0.0208,-0.0209,0,0,0,0,0,0,0,0.0065,0.0057,-0.0002,0.0006,0.0001,-0.0026,-0.0034,-0.0066,-0.011,-0.0074,-0.0077,-0.0082,-0.0148,-0.017,-0.0176,-0.0225,-0.0205,-0.0208,-0.021,-0.0211,-0.0333,-0.0335,0,0,0,0,0,0,0.0084,0.0061,0.0001,-0.0004,0.0034,-0.0027,-0.0036,-0.0048,-0.011,-0.0118,-0.0082,-0.0084,-0.0165,-0.0172,-0.0179,-0.0239,-0.0208,-0.0212,-0.0213,-0.0332,-0.0334,-0.0335,0,0,0,0,0,0,0.0086,0.0079,0.0005,0.0029,0.0019,-0.0028,-0.0041,-0.0049,-0.007,-0.0115,-0.0125,-0.0092,-0.0165,-0.0174,-0.0219,-0.0242,-0.0213,-0.0216,-0.0331,-0.0333,-0.0334,-0.0341,0,0,0,0,0,0,0.0088,0.008,0.0073,0.0031,0.0018,-0.0029,-0.0041,-0.0051,-0.0071,-0.0075,-0.0127,-0.0135,-0.0165,-0.0214,-0.0223,-0.0246,-0.0219,-0.0329,-0.0332,-0.0334,-0.0339,-0.0342,-0.0345,0,0,0,0,0,0.0092,0.0076,0.0073,0.0065,0.0011,-0.0029,-0.0039,-0.0073,-0.0072,-0.0089,-0.0126,-0.0133,-0.0235,-0.0218,-0.0228,-0.0252,-0.0328,-0.0331,-0.0334,-0.0337,-0.0342,-0.0345,0,0,0,0,0,0,0.01,0.0069,0.0064,0.0039,0.001,-0.0036,-0.0058,-0.0068,-0.0111,-0.0116,-0.0149,-0.0161,-0.0213,-0.0229,-0.0209,-0.0295,-0.0283,-0.0288,-0.0282,-0.0287,-0.029,-0.0297,-0.0222,0,0,0,0,0,0.0103,0.0086,0.0055,0.0034,0.0021,-0.0013,-0.0032,-0.0054,-0.0092,-0.011,-0.0149,-0.019,-0.0233,-0.0254,-0.0299,-0.0338,-0.0354,-0.0361,-0.0365,-0.0367,-0.038,-0.0416,-0.0424,-0.0344,-0.0344,-0.0344,0,0,0.0101,0.0082,0.0072,0.0036,0.0009,-0.0021,-0.0026,-0.006,-0.0089,-0.0112,-0.0172,-0.0206,-0.0247,-0.0304,-0.0327,-0.0318,-0.0398,-0.0371,-0.0373,-0.0385,-0.042,-0.0428,-0.0435,-0.0346,-0.0346,-0.0345,0,0,0.0083,0.0072,0.005,0.0028,-0.0006,-0.003,-0.0033,-0.0081,-0.0108,-0.0161,-0.0189,-0.0236,-0.0298,-0.034,-0.0364,-0.0409,-0.0417,-0.0417,-0.0437,-0.0472,-0.0479,-0.0485,-0.0509,-0.0517,-0.0415,-0.0415,-0.0415,0,0.0078,0.0052,0.0036,0.001,-0.0008,-0.0029,-0.0057,-0.009,-0.015,-0.0174,-0.0182,-0.0287,-0.0321,-0.0383,-0.0408,-0.0418,-0.0431,-0.0415,-0.0475,-0.0482,-0.0488,-0.0511,-0.052,-0.0416,-0.0415,-0.0415,-0.0415,0,0.0043,0.0024,0.0009,-0.0028,-0.005,-0.0078,-0.0113,-0.0146,-0.0172,-0.0208,-0.0278,-0.0333,-0.039,-0.041,-0.0427,-0.0489,-0.0482,-0.0475,-0.046,-0.0496,-0.0518,-0.0527,-0.0416,-0.0416,-0.0416,-0.0416,0,0,0.0014,-0.001,-0.0018,-0.0024,-0.0068,-0.0087,-0.0134,-0.0182,-0.0204,-0.0274,-0.0316,-0.0404,-0.0425,-0.0455,-0.048,-0.0519,-0.0575,-0.0517,-0.0518,-0.0533,-0.0645,-0.0588,-0.0592,-0.0572,-0.0574,-0.0575,-0.064,0,-0.0014,-0.0044,-0.006,-0.0092,-0.0107,-0.0131,-0.0166,-0.0209,-0.0249,-0.0299,-0.036,-0.0412,-0.0441,-0.0463,-0.0513,-0.0562,-0.0601,-0.0558,-0.0616,-0.0618,-0.0557,-0.0602,-0.0581,-0.0647,-0.0649,-0.0651,-0.0652,0,-0.0055,-0.0061,-0.0087,-0.01,-0.0111,-0.0135,-0.0174,-0.0208,-0.0274,-0.0305,-0.037,-0.0412,-0.0496,-0.05,-0.0614,-0.0582,-0.0622,-0.0656,-0.0658,-0.0612,-0.0579,-0.0608,-0.0668,-0.0667,-0.0666,-0.0665,-0.0664,0,-0.0054,-0.0084,-0.0094,-0.0103,-0.0127,-0.0143,-0.0161,-0.0213,-0.0227,-0.0305,-0.032,-0.0428,-0.0464,-0.0551,-0.0629,-0.0624,-0.0735,-0.0731,-0.0719,-0.0714,-0.0741,-0.0734,-0.0808,-0.0808,-0.0807,-0.0807,-0.0807,0,-0.0073,-0.0083,-0.0088,-0.0092,-0.0095,-0.0125,-0.0141,-0.0172,-0.0212,-0.0219,-0.0314,-0.0337,-0.0477,-0.0551,-0.0632,-0.0702,-0.0738,-0.0739,-0.0734,-0.0741,-0.0734,-0.0747,-0.0739,-0.081,-0.0809,-0.0809,-0.0808,0,-0.0066,-0.0077,-0.0079,-0.0091,-0.0091,-0.0091,-0.0095,-0.0102,-0.0147,-0.0157,-0.0175,-0.0277,-0.0377,-0.0502,-0.0636,-0.068,-0.0767,-0.0775,-0.0772,-0.0764,-0.0726,-0.0718,-0.0787,-0.0786,-0.0785,-0.0784,-0.0783,0,-0.006,-0.0061,-0.0055,-0.004,-0.0042,-0.0039,-0.003,-0.0063,-0.0058,-0.0106,-0.01,-0.0204,-0.0278,-0.0424,-0.057,-0.0727,-0.0733,-0.0774,-0.0769,-0.0739,-0.0728,-0.0721,-0.0715,-0.0781,-0.0781,-0.0781,-0.0781,0,-0.0039,-0.004,-0.0027,0.0007,0.0023,0.0043,0.0055,0.0071,0.0042,0.0005,-0.0017,-0.0114,-0.0221,-0.038,-0.0498,-0.061,-0.0756,-0.0763,-0.0766,-0.0762,-0.0732,-0.0721,-0.0716,-0.0777,-0.0777,-0.0778,-0.0778,0,-0.0014,0.0004,0.0024,0.0055,0.0086,0.0117,0.0115,0.013,0.0129,0.0087,0.0082,-0.0057,-0.0151,-0.0318,-0.043,-0.0538,-0.0566,-0.0584,-0.0597,-0.0603,-0.053,-0.0464,-0.0434,0,0,0,0,0,0.0007,0.0031,0.007,0.0104,0.0141,0.0149,0.0173,0.0166,0.015,0.0163,0.0128,0.0034,-0.0139,-0.0236,-0.0331,-0.043,-0.0602,-0.0543,-0.0633,-0.0755,-0.076,-0.07,0,0,0,0,0,0,0.0019,0.0056,0.0078,0.0144,0.0173,0.0208,0.022,0.0207,0.0212,0.0183,0.009,0.0034,-0.0149,-0.0079,-0.0326,-0.0366,-0.0428,-0.064,-0.0641,-0.0753,-0.0757,-0.076,-0.0701,0,0,0,0,0]}]]